Weather History for Doha, Qatar

Change the Weather History Date:

Sunday, August 1, 2010

  Actual Average Record
Temperature  
Mean Temperature 96 °F -  
Max Temperature 102 °F 105 °F 113 °F (2000)
Min Temperature 91 °F 84 °F 84 °F (1996)
Cooling Degree Days 32    
Growing Degree Days 46 (Base 50)    
Moisture  
Dew Point 84 °F    
Average Humidity 68    
Maximum Humidity 84    
Minimum Humidity 42    
Precipitation  
Precipitation 0.00 in 0.00 in - ()
Sea Level Pressure  
Sea Level Pressure 29.48 in    
Wind  
Wind Speed 8 mph ()    
Max Wind Speed 17 mph    
Max Gust Speed -    
Visibility 4.2 miles    
Events      
Averages and records for this station are not official NWS values.
T = Trace of Precipitation, MM = Missing Value Source: Averaged Metar Reports

Daily Weather History Graph

Daily Weather History Graph

Search for Another Location

Airport:

Trip Planner

Search our weather history database for the weather conditions in past years. The results will help you decide how hot, cold, wet, or windy it might be!

Date:

Astronomy

Aug. 01, 2010 Rise Set
Actual Time 5:00 AM AST 6:19 PM AST
Civil Twilight 4:36 AM AST 6:43 PM AST
Nautical Twilight 4:06 AM AST 7:12 PM AST
Astronomical Twilight 3:36 AM AST 7:43 PM AST
Moon 9:44 PM AST (8/1) 10:11 AM AST (8/1)
Length of Visible Light 14h 07m
Length of Day
13h 18m
Waning Gibbous, 68% of the Moon is Illuminated
Aug 1
Waning Gibbous
Aug 3
Last Quarter
Aug 10
New
Aug 16
First Quarter
Aug 24
Full

Hourly Weather History & Observations

Time (AST) Temp. Heat Index Dew Point Humidity Pressure Visibility Wind Dir Wind Speed Gust Speed Precip Events Conditions
12:00 AM 91.4 °F 122.4 °F 86.0 °F 84% 29.47 in 3.1 mi ENE 5.8 mph - N/A   Haze
12:30 AM 91.4 °F 122.4 °F 86.0 °F 84% 29.47 in 3.1 mi NE 5.8 mph - N/A   Haze
1:00 AM 91.4 °F 122.4 °F 86.0 °F 84% 29.44 in 3.1 mi NNE 6.9 mph - N/A   Haze
2:00 AM 93.2 °F 124.9 °F 86.0 °F 79% 29.44 in 3.7 mi NE 6.9 mph - N/A   Unknown
2:30 AM 93.2 °F 124.9 °F 86.0 °F 79% 29.47 in 3.7 mi NE 8.1 mph - N/A   Unknown
3:00 AM 92 °F - 87 °F 81% 29.48 in 4 mi NE 8.1 mph - -   Haze
4:00 AM 93.2 °F 124.9 °F 86.0 °F 79% 29.47 in 4.3 mi NE 6.9 mph - N/A   Unknown
4:30 AM 93.2 °F 124.9 °F 86.0 °F 79% 29.47 in 4.3 mi NE 6.9 mph - N/A   Unknown
5:00 AM 93.2 °F 124.9 °F 86.0 °F 79% 29.47 in 4.3 mi NNE 5.8 mph - N/A   Unknown
5:30 AM 93.2 °F 124.9 °F 86.0 °F 79% 29.47 in 3.7 mi NNE 5.8 mph - N/A   Unknown
6:00 AM 93.2 °F 124.9 °F 86.0 °F 79% 29.50 in 3.7 mi NNE 5.8 mph - N/A   Unknown
6:30 AM 93.2 °F 124.9 °F 86.0 °F 79% 29.50 in 3.7 mi NE 5.8 mph - N/A   Haze
7:00 AM 93.2 °F 120.9 °F 84.2 °F 75% 29.50 in 3.7 mi NE 8.1 mph - N/A   Unknown
7:30 AM 95.0 °F 123.7 °F 84.2 °F 71% 29.50 in 3.7 mi NE 11.5 mph - N/A   Haze
8:00 AM 96.8 °F 126.0 °F 84.2 °F 67% 29.50 in 3.7 mi ENE 13.8 mph - N/A   Unknown
8:30 AM 96.8 °F 121.7 °F 82.4 °F 63% 29.50 in 4.3 mi NE 9.2 mph - N/A   Haze
9:00 AM 97 °F - 83 °F 58% 29.52 in 4 mi ENE 13.8 mph - -   Haze
9:00 AM 96.8 °F 126.0 °F 84.2 °F 67% 29.50 in 4.3 mi ENE 13.8 mph - N/A   Unknown
9:30 AM 96.8 °F 126.0 °F 84.2 °F 67% 29.50 in 4.3 mi East 13.8 mph - N/A   Haze
10:00 AM 98.6 °F 128.0 °F 84.2 °F 63% 29.50 in 4.3 mi East 15.0 mph - N/A   Unknown
10:30 AM 98.6 °F 128.0 °F 84.2 °F 63% 29.50 in 5.0 mi East 16.1 mph - N/A   Haze
11:00 AM 100.4 °F 130.9 °F 84.2 °F 60% 29.50 in 5.0 mi East 15.0 mph - N/A   Unknown
11:30 AM 98.6 °F 132.9 °F 86.0 °F 67% 29.50 in 5.0 mi East 16.1 mph - N/A   Haze
12:00 PM 100.4 °F 136.1 °F 86.0 °F 64% 29.47 in 5.6 mi East 17.3 mph - N/A   Unknown
12:30 PM 100.4 °F 136.1 °F 86.0 °F 64% 29.47 in 5.6 mi East 15.0 mph - N/A   Haze
1:00 PM 102.2 °F 133.6 °F 84.2 °F 57% 29.47 in 5.6 mi East 12.7 mph - N/A   Unknown
1:30 PM 100.4 °F 130.9 °F 84.2 °F 60% 29.47 in - East 15.0 mph - N/A   Clear
2:00 PM 100.4 °F 130.9 °F 84.2 °F 60% 29.47 in - East 12.7 mph - N/A   Clear
2:30 PM 102.2 °F 128.5 °F 82.4 °F 53% 29.47 in - East 12.7 mph - N/A   Clear
3:00 PM 102.2 °F 128.5 °F 82.4 °F 53% 29.47 in - East 12.7 mph - N/A   Clear
3:30 PM 102.2 °F 116.3 °F 75.2 °F 42% 29.44 in - East 10.4 mph - N/A   Clear
4:00 PM 102.2 °F 121.5 °F 78.8 °F 47% 29.44 in 5.6 mi ENE 9.2 mph - N/A   Unknown
4:30 PM 100.4 °F 122.7 °F 80.6 °F 53% 29.44 in 5.0 mi NE 8.1 mph - N/A   Unknown
5:00 PM 100.4 °F 126.1 °F 82.4 °F 56% 29.44 in 5.0 mi ENE 8.1 mph - N/A   Unknown
5:30 PM 98.6 °F 124.6 °F 82.4 °F 60% 29.47 in 4.3 mi ENE 10.4 mph - N/A   Unknown
6:00 PM 96.8 °F 126.0 °F 84.2 °F 67% - 3.7 mi ENE 10.4 mph - N/A   Unknown
6:30 PM 95.0 °F 123.7 °F 84.2 °F 71% 29.47 in 3.7 mi ENE 9.2 mph - N/A   Unknown
7:00 PM 95.0 °F 128.0 °F 86.0 °F 75% 29.47 in 3.7 mi ENE 10.4 mph - N/A   Unknown
7:30 PM 95.0 °F 123.7 °F 84.2 °F 71% 29.50 in 3.7 mi NE 8.1 mph - N/A   Unknown
8:00 PM 95.0 °F 128.0 °F 86.0 °F 75% 29.50 in 3.7 mi NE 8.1 mph - N/A   Unknown
8:30 PM 95.0 °F 128.0 °F 86.0 °F 75% 29.50 in 3.7 mi ENE 8.1 mph - N/A   Unknown
9:00 PM 95 °F - 86 °F 68% 29.52 in 4 mi East 6.9 mph - -   Haze
9:00 PM 95.0 °F 128.0 °F 86.0 °F 75% 29.50 in 4.3 mi East 6.9 mph - N/A   Unknown
9:30 PM 95.0 °F 128.0 °F 86.0 °F 75% 29.50 in 4.3 mi East 10.4 mph - N/A   Unknown
10:00 PM 95.0 °F 123.7 °F 84.2 °F 71% 29.50 in 4.3 mi East 8.1 mph - N/A   Unknown
10:30 PM 95.0 °F 123.7 °F 84.2 °F 71% 29.50 in 4.3 mi East 5.8 mph - N/A   Unknown
11:00 PM 95.0 °F 119.6 °F 82.4 °F 67% 29.50 in 4.3 mi East 5.8 mph - N/A   Unknown
11:30 PM 95.0 °F 119.6 °F 82.4 °F 67% 29.50 in 5.6 mi East 5.8 mph - N/A   Unknown